Minneapolis, MN

12:21 AM CDT on May 23, 2017 (GMT -0500)
Minneapolis-Saint Paul International

Weather History for KMSP - December, 2012

Change the Weather History Date:

Tuesday, December 25, 2012

  Actual Average Record
Temperature  
Mean Temperature 7 °F 17 °F  
Max Temperature 13 °F 25 °F 51 °F (1922)
Min Temperature 0 °F 10 °F -39 °F (1879)
Degree Days  
Heating Degree Days 58 48  
Month to date heating degree days 976 1114  
Since 1 July heating degree days 2464 2733  
Cooling Degree Days 0 0  
Month to date cooling degree days 0 0  
Year to date cooling degree days 1131 753  
Moisture  
Dew Point -1 °F    
Average Humidity 74    
Maximum Humidity 87    
Minimum Humidity 61    
Precipitation  
Precipitation 0.00 in 0.04 in 1.35 in (1982)
Month to date precipitation 1.49 0.96  
Year to date precipitation 29.44 30.41  
Snow  
Snow 0.00 in 0.40 in 9.60 in (1945)
Month to date snowfall 12.8 9.8  
Since 1 July snowfall 13.6 19.7  
Snow Depth 1.00 in    
Sea Level Pressure  
Sea Level Pressure 30.49 in    
Wind  
Wind Speed 6 mph (NW)    
Max Wind Speed 12 mph    
Max Gust Speed 15 mph    
Visibility 10 miles    
Events      
T = Trace of Precipitation, MM = Missing Value Source: NWS Daily Summary

Daily Weather History Graph

Daily Weather History Graph

Search for Another Location

Airport or City:

Trip Planner

Search our weather history database for the weather conditions in past years. The results will help you decide how hot, cold, wet, or windy it might be!

Date:

Astronomy

Dec. 25, 2012 Rise Set
Actual Time 7:49 AM CST 4:37 PM CST
Civil Twilight 7:15 AM CST 5:10 PM CST
Nautical Twilight 6:38 AM CST 5:48 PM CST
Astronomical Twilight 6:02 AM CST 6:23 PM CST
Moon 2:47 PM CST (12/25) 5:20 AM CST (12/25)
Length of Visible Light 9h 55m
Length of Day
8h 47m
Waxing Gibbous, 94% of the Moon is Illuminated
Dec 25
Waxing Gibbous
Dec 28
Full
Jan 4
Last Quarter
Jan 11
New
Jan 18
First Quarter

Hourly Weather History & Observations

Time (CST) Temp. Windchill Dew Point Humidity Pressure Visibility Wind Dir Wind Speed Gust Speed Precip Events Conditions
12:53 AM 5.0 °F -5.6 °F -0.0 °F 80% 30.36 in 10.0 mi NNW 5.8 mph - N/A   Clear
1:53 AM 5.0 °F -8.1 °F -0.9 °F 76% 30.38 in 10.0 mi NNW 8.1 mph - N/A   Clear
2:53 AM 3.0 °F -8.0 °F -0.9 °F 84% 30.42 in 10.0 mi NW 5.8 mph - N/A   Clear
3:53 AM 3.0 °F -9.3 °F -0.9 °F 84% 30.43 in 10.0 mi NW 6.9 mph - N/A   Clear
4:53 AM 1.9 °F -10.6 °F -2.0 °F 83% 30.45 in 10.0 mi NW 6.9 mph - N/A   Clear
5:53 AM 1.9 °F -10.6 °F -2.9 °F 80% 30.46 in 10.0 mi NNW 6.9 mph - N/A   Clear
6:53 AM 1.0 °F -11.7 °F -2.9 °F 83% 30.48 in 10.0 mi NNW 6.9 mph - N/A   Clear
7:53 AM -0.0 °F -13.0 °F -4.0 °F 83% 30.50 in 10.0 mi NW 6.9 mph - N/A   Partly Cloudy
8:53 AM 1.9 °F -7.6 °F -4.0 °F 76% 30.52 in 10.0 mi NNW 4.6 mph - N/A   Partly Cloudy
9:53 AM 3.0 °F -6.4 °F -2.9 °F 76% 30.54 in 10.0 mi NW 4.6 mph - N/A   Partly Cloudy
10:53 AM 5.0 °F -4.1 °F -2.0 °F 73% 30.54 in 10.0 mi NW 4.6 mph - N/A   Partly Cloudy
11:53 AM 8.1 °F -3.2 °F -0.0 °F 70% 30.52 in 10.0 mi NNW 6.9 mph - N/A   Partly Cloudy
12:53 PM 10.9 °F 4.7 °F 1.0 °F 64% 30.52 in 10.0 mi WNW 3.5 mph - N/A   Partly Cloudy
1:53 PM 12.9 °F 5.2 °F 1.9 °F 62% 30.51 in 10.0 mi WNW 4.6 mph - N/A   Scattered Clouds
2:53 PM 12.9 °F 1.6 °F 1.9 °F 62% 30.49 in 10.0 mi NNW 8.1 mph - N/A   Scattered Clouds
3:53 PM 10.9 °F -0.8 °F 1.0 °F 64% 30.48 in 10.0 mi NW 8.1 mph - N/A   Scattered Clouds
4:53 PM 8.1 °F -3.2 °F -0.0 °F 70% 30.50 in 10.0 mi NNW 6.9 mph - N/A   Partly Cloudy
5:53 PM 7.0 °F -1.7 °F -0.0 °F 73% 30.53 in 10.0 mi NW 4.6 mph - N/A   Scattered Clouds
6:53 PM 7.0 °F -1.7 °F -0.0 °F 73% 30.55 in 10.0 mi NW 4.6 mph - N/A   Partly Cloudy
7:53 PM 7.0 °F -4.5 °F -0.0 °F 73% 30.54 in 10.0 mi NW 6.9 mph - N/A   Mostly Cloudy
8:53 PM 6.1 °F -4.3 °F -0.9 °F 73% 30.51 in 10.0 mi NW 5.8 mph - N/A   Mostly Cloudy
9:53 PM 7.0 °F -4.5 °F -0.9 °F 70% 30.49 in 10.0 mi North 6.9 mph - N/A   Overcast
10:53 PM 6.1 °F - -0.9 °F 73% 30.49 in 10.0 mi Calm Calm - N/A   Mostly Cloudy
11:53 PM 6.1 °F - -0.0 °F 76% 30.48 in 10.0 mi Calm Calm - N/A   Mostly Cloudy